Location: Newark
(39.9581°N, 97.2014°W)
Time: 06:41:09
(UTC+00:00)

Envisat - Pass Details

Date: 18 January 2020
Orbit: 764 x 766 km, 98.1° (Epoch: 27 February)

Event Time Altitude Azimuth Distance (km) Brightness Sun altitude
Rises 00:04:05 0° 158° (SSE) 3,218 6.2 -6.8°
Reaches altitude 10° 00:06:24 10° 155° (SSE) 2,296 5.4 -7.2°
Maximum altitude 00:11:24 66° 74° (ENE) 836 3.0 -8.1°
Drops below altitude 10° 00:16:27 10° 353° (N) 2,312 5.4 -9.0°
Sets 00:18:47 0° 351° (N) 3,242 6.1 -9.4°
